Voltar ao catálogo

STARLINK-35344

AtivoComunicaçõesSSO
NORAD 65656·PAYLOAD·🇺🇸 United States

Lançado Sep 19, 2025 de Vandenberg Space Force Base

Loading…

Próximas Passagens (próximas 24 horas)

TLE

AtualizadoSource: CelesTrak SupGP

Época: Sep 14, 2026, 21:24 UTC

1 65656C 25211E   26257.89215278  .00003174  00000+0  98518-4 0  2579
2 65656  97.2820 298.2576 0001077 116.7135  29.3565 15.33436333    11

Acompanhe STARLINK-35344 em tempo real com AllMySat

Download on the App Store